| time (UTC) | temp F | wind direction | speed MPH | gust MPH | rain 1hr in | rain 24hr in | rain mn in | humidity % | barometer mb |
| 20260906171650 | 84 | 169 | 19.0 | 29.0 | 0.00 | 0.00 | 0.00 | 63 | 1017.6 |
| 20260906171247 | 83 | 159 | 16.0 | 24.0 | 0.00 | 0.00 | 0.00 | 66 | 1017.6 |
| 20260906171140 | 82 | 134 | 15.0 | 22.0 | 0.00 | 0.00 | 0.00 | 66 | 1017.6 |
| 20260906170650 | 82 | 171 | 14.0 | 25.0 | 0.00 | 0.00 | 0.00 | 64 | 1017.6 |
| 20260906170246 | 82 | 168 | 15.0 | 25.0 | 0.00 | 0.00 | 0.00 | 64 | 1017.6 |
| 20260906170157 | 82 | 171 | 16.0 | 25.0 | 0.00 | 0.00 | 0.00 | 64 | 1017.6 |
| 20260906165645 | 82 | 153 | 16.0 | 25.0 | 0.00 | 0.00 | 0.00 | 64 | 1017.7 |
| 20260906165242 | 82 | 131 | 14.0 | 28.0 | 0.00 | 0.00 | 0.00 | 64 | 1017.7 |
| 20260906165135 | 82 | 173 | 14.0 | 28.0 | 0.00 | 0.00 | 0.00 | 65 | 1017.6 |
| 20260906164648 | 81 | 195 | 18.0 | 28.0 | 0.00 | 0.00 | 0.00 | 64 | 1017.6 |
| 20260906164238 | 81 | 151 | 16.0 | 25.0 | 0.00 | 0.00 | 0.00 | 66 | 1017.6 |
| 20260906164135 | 81 | 157 | 17.0 | 25.0 | 0.00 | 0.00 | 0.00 | 65 | 1017.6 |
| 20260906163645 | 81 | 126 | 16.0 | 26.0 | 0.00 | 0.00 | 0.00 | 65 | 1017.7 |
| 20260906163242 | 80 | 142 | 17.0 | 26.0 | 0.00 | 0.00 | 0.00 | 65 | 1017.7 |
| 20260906163135 | 80 | 171 | 19.0 | 26.0 | 0.00 | 0.00 | 0.00 | 65 | 1017.8 |
| 20260906162645 | 80 | 128 | 15.0 | 28.0 | 0.00 | 0.00 | 0.00 | 66 | 1017.8 |
| 20260906162243 | 80 | 150 | 16.0 | 27.0 | 0.00 | 0.00 | 0.00 | 66 | 1017.7 |
| 20260906162136 | 80 | 165 | 14.0 | 27.0 | 0.00 | 0.00 | 0.00 | 66 | 1017.8 |
| 20260906161646 | 80 | 140 | 19.0 | 27.0 | 0.00 | 0.00 | 0.00 | 67 | 1017.7 |
| 20260906161301 | 81 | 146 | 19.0 | 27.0 | 0.00 | 0.00 | 0.00 | 66 | 1017.8 |
| 20260906161153 | 81 | 133 | 19.0 | 27.0 | 0.00 | 0.00 | 0.00 | 65 | 1017.7 |
| 20260906160642 | 81 | 153 | 20.0 | 27.0 | 0.00 | 0.00 | 0.00 | 64 | 1017.7 |
| 20260906160239 | 82 | 150 | 15.0 | 27.0 | 0.00 | 0.00 | 0.00 | 64 | 1017.7 |
| 20260906160136 | 82 | 152 | 16.0 | 27.0 | 0.00 | 0.00 | 0.00 | 63 | 1017.7 |
| 20260906155706 | 83 | 167 | 19.0 | 27.0 | 0.00 | 0.00 | 0.00 | 63 | 1017.7 |
| 20260906155237 | 83 | 158 | 18.0 | 27.0 | 0.00 | 0.00 | 0.00 | 62 | 1017.7 |
| 20260906155152 | 83 | 135 | 18.0 | 27.0 | 0.00 | 0.00 | 0.00 | 62 | 1017.7 |
| 20260906154641 | 82 | 141 | 17.0 | 24.0 | 0.00 | 0.00 | 0.00 | 64 | 1017.7 |
| 20260906154239 | 82 | 157 | 13.0 | 24.0 | 0.00 | 0.00 | 0.00 | 64 | 1017.6 |
| 20260906154151 | 82 | 155 | 12.0 | 24.0 | 0.00 | 0.00 | 0.00 | 64 | 1017.6 |
| 20260906153641 | 82 | 163 | 16.0 | 22.0 | 0.00 | 0.00 | 0.00 | 63 | 1017.6 |
| 20260906153237 | 82 | 149 | 11.0 | 21.0 | 0.00 | 0.00 | 0.00 | 64 | 1017.6 |
| 20260906153151 | 81 | 155 | 12.0 | 21.0 | 0.00 | 0.00 | 0.00 | 64 | 1017.5 |
| 20260906152639 | 81 | 149 | 14.0 | 21.0 | 0.00 | 0.00 | 0.00 | 66 | 1017.5 |
| 20260906152236 | 80 | 141 | 7.0 | 20.0 | 0.00 | 0.00 | 0.00 | 67 | 1017.6 |
| 20260906152149 | 80 | 138 | 9.0 | 20.0 | 0.00 | 0.00 | 0.00 | 67 | 1017.6 |
| 20260906151639 | 80 | 174 | 9.0 | 18.0 | 0.00 | 0.00 | 0.00 | 70 | 1017.5 |
| 20260906151236 | 79 | 283 | 11.0 | 18.0 | 0.00 | 0.00 | 0.00 | 69 | 1017.6 |
| 20260906151149 | 79 | 149 | 11.0 | 18.0 | 0.00 | 0.00 | 0.00 | 70 | 1017.5 |
| 20260906150640 | 78 | 186 | 7.0 | 15.0 | 0.00 | 0.00 | 0.00 | 73 | 1017.6 |
| 20260906150251 | 78 | 150 | 8.0 | 20.0 | 0.00 | 0.00 | 0.00 | 73 | 1017.6 |
| 20260906150147 | 78 | 79 | 8.0 | 20.0 | 0.00 | 0.00 | 0.00 | 74 | 1017.6 |
| 20260906145638 | 78 | 144 | 9.0 | 22.0 | 0.00 | 0.00 | 0.00 | 73 | 1017.6 |
| 20260906145234 | 77 | 148 | 11.0 | 22.0 | 0.00 | 0.00 | 0.00 | 74 | 1017.7 |
| 20260906145147 | 77 | 108 | 8.0 | 18.0 | 0.00 | 0.00 | 0.00 | 75 | 1017.7 |
| 20260906144638 | 76 | 167 | 7.0 | 17.0 | 0.00 | 0.00 | 0.00 | 76 | 1017.6 |
| 20260906144234 | 76 | 319 | 7.0 | 17.0 | 0.00 | 0.00 | 0.00 | 78 | 1017.6 |
| 20260906144147 | 76 | 65 | 7.0 | 15.0 | 0.00 | 0.00 | 0.00 | 78 | 1017.6 |
| 20260906143658 | 75 | 117 | 8.0 | 18.0 | 0.00 | 0.00 | 0.00 | 78 | 1017.5 |
| 20260906143314 | 75 | 312 | 7.0 | 18.0 | 0.00 | 0.00 | 0.00 | 78 | 1017.4 |
| 20260906143146 | 75 | 186 | 8.0 | 18.0 | 0.00 | 0.00 | 0.00 | 78 | 1017.4 |
| 20260906142635 | 75 | 218 | 8.0 | 16.0 | 0.00 | 0.00 | 0.00 | 78 | 1017.4 |
| 20260906142251 | 75 | 218 | 9.0 | 19.0 | 0.00 | 0.00 | 0.00 | 78 | 1017.3 |
| 20260906142204 | 75 | 56 | 9.0 | 19.0 | 0.00 | 0.00 | 0.00 | 78 | 1017.3 |
| 20260906141713 | 75 | 146 | 9.0 | 19.0 | 0.00 | 0.00 | 0.00 | 77 | 1017.3 |
| 20260906141248 | 74 | 167 | 9.0 | 19.0 | 0.00 | 0.00 | 0.00 | 78 | 1017.2 |
| 20260906141140 | 74 | 94 | 9.0 | 19.0 | 0.00 | 0.00 | 0.00 | 79 | 1017.3 |
| 20260906140651 | 74 | 128 | 9.0 | 15.0 | 0.00 | 0.00 | 0.00 | 79 | 1017.4 |
| 20260906140247 | 74 | 271 | 8.0 | 17.0 | 0.00 | 0.00 | 0.00 | 80 | 1017.4 |
| 20260906140144 | 73 | 159 | 9.0 | 16.0 | 0.00 | 0.00 | 0.00 | 79 | 1017.5 |
| 20260906135713 | 73 | 144 | 9.0 | 19.0 | 0.00 | 0.00 | 0.00 | 80 | 1017.4 |
| 20260906135244 | 73 | 65 | 9.0 | 19.0 | 0.00 | 0.00 | 0.00 | 81 | 1017.4 |
| 20260906135139 | 73 | 299 | 9.0 | 12.0 | 0.00 | 0.00 | 0.00 | 81 | 1017.4 |
| 20260906134649 | 73 | 127 | 8.0 | 12.0 | 0.00 | 0.00 | 0.00 | 82 | 1017.4 |
| 20260906134306 | 72 | 116 | 7.0 | 15.0 | 0.00 | 0.00 | 0.00 | 83 | 1017.4 |
| 20260906134157 | 72 | 69 | 7.0 | 15.0 | 0.00 | 0.00 | 0.00 | 83 | 1017.4 |
| 20260906133645 | 72 | 269 | 8.0 | 15.0 | 0.00 | 0.00 | 0.00 | 83 | 1017.4 |
| 20260906133302 | 72 | 200 | 8.0 | 14.0 | 0.00 | 0.00 | 0.00 | 84 | 1017.4 |
| 20260906133134 | 72 | 93 | 8.0 | 14.0 | 0.00 | 0.00 | 0.00 | 84 | 1017.4 |
| 20260906132644 | 71 | 94 | 7.0 | 11.0 | 0.00 | 0.00 | 0.00 | 84 | 1017.4 |
| 20260906132239 | 71 | 312 | 5.0 | 13.0 | 0.00 | 0.00 | 0.00 | 85 | 1017.4 |
| 20260906132152 | 71 | 156 | 5.0 | 13.0 | 0.00 | 0.00 | 0.00 | 85 | 1017.4 |
| 20260906131642 | 71 | 107 | 8.0 | 15.0 | 0.00 | 0.00 | 0.00 | 85 | 1017.5 |
| 20260906131259 | 71 | 88 | 9.0 | 15.0 | 0.00 | 0.00 | 0.00 | 85 | 1017.4 |
| 20260906131151 | 70 | 92 | 10.0 | 15.0 | 0.00 | 0.00 | 0.00 | 85 | 1017.5 |
| 20260906130640 | 70 | 67 | 10.0 | 13.0 | 0.00 | 0.00 | 0.00 | 86 | 1017.5 |
| 20260906130237 | 70 | 71 | 8.0 | 11.0 | 0.00 | 0.00 | 0.00 | 88 | 1017.4 |
| 20260906130150 | 69 | 87 | 7.0 | 11.0 | 0.00 | 0.00 | 0.00 | 88 | 1017.4 |
| 20260906125643 | 69 | 81 | 7.0 | 10.0 | 0.00 | 0.00 | 0.00 | 89 | 1017.3 |
| 20260906125240 | 69 | 54 | 8.0 | 10.0 | 0.00 | 0.00 | 0.00 | 89 | 1017.4 |
| 20260906125153 | 69 | 53 | 7.0 | 10.0 | 0.00 | 0.00 | 0.00 | 89 | 1017.4 |
| 20260906124702 | 69 | 30 | 4.0 | 10.0 | 0.00 | 0.00 | 0.00 | 88 | 1017.4 |
| 20260906124236 | 69 | 46 | 7.0 | 9.0 | 0.00 | 0.00 | 0.00 | 88 | 1017.3 |
| 20260906124207 | 69 | 66 | 7.0 | 9.0 | 0.00 | 0.00 | 0.00 | 88 | 1017.3 |
| 20260906123636 | 69 | 63 | 5.0 | 6.0 | 0.00 | 0.00 | 0.00 | 88 | 1017.1 |
| 20260906123252 | 69 | 60 | 4.0 | 6.0 | 0.00 | 0.00 | 0.00 | 88 | 1017.0 |
| 20260906123145 | 69 | 60 | 4.0 | 6.0 | 0.00 | 0.00 | 0.00 | 88 | 1017.0 |
| 20260906122634 | 69 | 61 | 5.0 | 6.0 | 0.00 | 0.00 | 0.00 | 88 | 1017.0 |
| 20260906122250 | 69 | 61 | 4.0 | 5.0 | 0.00 | 0.00 | 0.00 | 88 | 1017.0 |
| 20260906122143 | 69 | 57 | 4.0 | 5.0 | 0.00 | 0.00 | 0.00 | 88 | 1017.0 |
| 20260906121653 | 69 | 61 | 3.0 | 4.0 | 0.00 | 0.00 | 0.00 | 87 | 1017.0 |
| 20260906121250 | 69 | 50 | 2.0 | 4.0 | 0.00 | 0.00 | 0.00 | 87 | 1016.9 |
| 20260906121142 | 69 | 36 | 2.0 | 3.0 | 0.00 | 0.00 | 0.00 | 87 | 1016.9 |
| 20260906120636 | 69 | 43 | 2.0 | 5.0 | 0.00 | 0.00 | 0.00 | 86 | 1017.0 |
| 20260906120248 | 70 | 33 | 2.0 | 6.0 | 0.00 | 0.00 | 0.00 | 86 | 1017.1 |
| 20260906120144 | 70 | 30 | 3.0 | 6.0 | 0.00 | 0.00 | 0.00 | 86 | 1017.0 |
| 20260906115714 | 70 | 56 | 5.0 | 6.0 | 0.00 | 0.00 | 0.00 | 86 | 1016.8 |
| 20260906115246 | 70 | 46 | 4.0 | 6.0 | 0.00 | 0.00 | 0.00 | 86 | 1016.8 |
| 20260906115142 | 70 | 44 | 4.0 | 6.0 | 0.00 | 0.00 | 0.00 | 85 | 1016.8 |
| 20260906114652 | 70 | 48 | 3.0 | 5.0 | 0.00 | 0.00 | 0.00 | 85 | 1016.7 |
| 20260906114310 | 70 | 34 | 4.0 | 5.0 | 0.00 | 0.00 | 0.00 | 85 | 1016.7 |
| 20260906114143 | 70 | 46 | 4.0 | 4.0 | 0.00 | 0.00 | 0.00 | 85 | 1016.7 |
| 20260906113650 | 70 | 45 | 3.0 | 4.0 | 0.00 | 0.00 | 0.00 | 84 | 1016.7 |
| 20260906113247 | 70 | 360 | 1.0 | 3.0 | 0.00 | 0.00 | 0.00 | 84 | 1016.5 |
| 20260906113140 | 70 | 360 | 1.0 | 3.0 | 0.00 | 0.00 | 0.00 | 84 | 1016.5 |
| 20260906112651 | 70 | 16 | 2.0 | 3.0 | 0.00 | 0.00 | 0.00 | 83 | 1016.5 |
| 20260906112249 | 70 | 9 | 2.0 | 3.0 | 0.00 | 0.00 | 0.00 | 83 | 1016.5 |
| 20260906112140 | 70 | 355 | 1.0 | 2.0 | 0.00 | 0.00 | 0.00 | 83 | 1016.5 |
| 20260906111651 | 70 | 22 | 0.0 | 2.0 | 0.00 | 0.00 | 0.00 | 82 | 1016.5 |
| 20260906111308 | 70 | 5 | 1.0 | 2.0 | 0.00 | 0.00 | 0.00 | 82 | 1016.5 |
| 20260906111158 | 70 | 5 | 0.0 | 2.0 | 0.00 | 0.00 | 0.00 | 82 | 1016.5 |
| 20260906110647 | 70 | 117 | 0.0 | 2.0 | 0.00 | 0.00 | 0.00 | 82 | 1016.5 |
| 20260906110243 | 70 | 117 | 1.0 | 2.0 | 0.00 | 0.00 | 0.00 | 82 | 1016.5 |
| 20260906110141 | 70 | 117 | 1.0 | 2.0 | 0.00 | 0.00 | 0.00 | 82 | 1016.6 |
| 20260906105651 | 70 | 117 | 1.0 | 3.0 | 0.00 | 0.00 | 0.00 | 82 | 1016.7 |
| 20260906105248 | 70 | 13 | 1.0 | 5.0 | 0.00 | 0.00 | 0.00 | 82 | 1016.7 |
| 20260906105140 | 70 | 23 | 1.0 | 8.0 | 0.00 | 0.00 | 0.00 | 82 | 1016.7 |
| 20260906104710 | 71 | 355 | 3.0 | 9.0 | 0.00 | 0.00 | 0.00 | 82 | 1016.7 |
| 20260906104246 | 71 | 355 | 5.0 | 9.0 | 0.00 | 0.00 | 0.00 | 81 | 1016.7 |
| 20260906104158 | 71 | 355 | 5.0 | 9.0 | 0.00 | 0.00 | 0.00 | 81 | 1016.7 |
| 20260906103649 | 71 | 339 | 6.0 | 9.0 | 0.00 | 0.00 | 0.00 | 81 | 1016.7 |
| 20260906103305 | 71 | 355 | 4.0 | 6.0 | 0.00 | 0.00 | 0.00 | 80 | 1016.6 |
| 20260906103158 | 71 | 323 | 5.0 | 6.0 | 0.00 | 0.00 | 0.00 | 80 | 1016.6 |
| 20260906102646 | 71 | 223 | 1.0 | 5.0 | 0.00 | 0.00 | 0.00 | 80 | 1016.4 |
| 20260906102243 | 71 | 169 | 3.0 | 7.0 | 0.00 | 0.00 | 0.00 | 80 | 1016.2 |
| 20260906102156 | 71 | 153 | 3.0 | 8.0 | 0.00 | 0.00 | 0.00 | 79 | 1016.1 |
| 20260906101644 | 71 | 184 | 4.0 | 9.0 | 0.00 | 0.00 | 0.00 | 79 | 1016.0 |
| 20260906101241 | 71 | 159 | 5.0 | 9.0 | 0.00 | 0.00 | 0.00 | 80 | 1015.9 |
| 20260906101134 | 71 | 150 | 5.0 | 8.0 | 0.00 | 0.00 | 0.00 | 80 | 1015.9 |
| 20260906100644 | 71 | 162 | 5.0 | 9.0 | 0.00 | 0.00 | 0.00 | 79 | 1015.8 |
| 20260906100240 | 71 | 153 | 6.0 | 9.0 | 0.00 | 0.00 | 0.00 | 80 | 1015.9 |
| 20260906100153 | 71 | 146 | 6.0 | 9.0 | 0.00 | 0.00 | 0.00 | 80 | 1015.9 |
| 20260906095647 | 71 | 173 | 6.0 | 9.0 | 0.00 | 0.00 | 0.00 | 80 | 1015.9 |
| 20260906095238 | 71 | 147 | 6.0 | 9.0 | 0.00 | 0.00 | 0.00 | 81 | 1016.0 |
| 20260906095135 | 71 | 148 | 5.0 | 8.0 | 0.00 | 0.00 | 0.00 | 81 | 1016.0 |
| 20260906094644 | 71 | 147 | 6.0 | 8.0 | 0.00 | 0.00 | 0.00 | 83 | 1016.0 |
| 20260906094240 | 71 | 153 | 5.0 | 7.0 | 0.00 | 0.00 | 0.00 | 84 | 1016.1 |
| 20260906094153 | 71 | 143 | 5.0 | 9.0 | 0.00 | 0.00 | 0.00 | 84 | 1016.1 |
| 20260906093643 | 71 | 147 | 5.0 | 8.0 | 0.00 | 0.00 | 0.00 | 84 | 1016.0 |
| 20260906093240 | 71 | 155 | 4.0 | 8.0 | 0.00 | 0.00 | 0.00 | 85 | 1016.0 |
| 20260906093214 | 71 | 150 | 5.0 | 8.0 | 0.00 | 0.00 | 0.00 | 85 | 1016.0 |
| 20260906092642 | 71 | 146 | 4.0 | 7.0 | 0.00 | 0.00 | 0.00 | 85 | 1016.0 |
| 20260906092258 | 71 | 138 | 5.0 | 7.0 | 0.00 | 0.00 | 0.00 | 85 | 1016.0 |
| 20260906092149 | 71 | 146 | 5.0 | 7.0 | 0.00 | 0.00 | 0.00 | 85 | 1016.0 |
| 20260906091659 | 71 | 159 | 4.0 | 7.0 | 0.00 | 0.00 | 0.00 | 85 | 1015.9 |
| 20260906091234 | 71 | 161 | 5.0 | 6.0 | 0.00 | 0.00 | 0.00 | 85 | 1015.9 |
| 20260906091146 | 71 | 143 | 4.0 | 6.0 | 0.00 | 0.00 | 0.00 | 85 | 1015.9 |
| 20260906090636 | 71 | 167 | 4.0 | 5.0 | 0.00 | 0.00 | 0.00 | 84 | 1015.9 |
| 20260906090253 | 71 | 196 | 3.0 | 4.0 | 0.00 | 0.00 | 0.00 | 84 | 1015.8 |
| 20260906090146 | 71 | 200 | 3.0 | 4.0 | 0.00 | 0.00 | 0.00 | 84 | 1015.8 |
| 20260906085637 | 71 | 190 | 3.0 | 4.0 | 0.00 | 0.00 | 0.00 | 85 | 1015.7 |
| 20260906085311 | 71 | 224 | 3.0 | 3.0 | 0.00 | 0.00 | 0.00 | 84 | 1015.5 |
| 20260906085146 | 71 | 233 | 3.0 | 3.0 | 0.00 | 0.00 | 0.00 | 84 | 1015.5 |
| 20260906084637 | 71 | 217 | 2.0 | 4.0 | 0.00 | 0.00 | 0.00 | 84 | 1015.5 |
| 20260906084254 | 71 | 221 | 2.0 | 4.0 | 0.00 | 0.00 | 0.00 | 84 | 1015.4 |
| 20260906084146 | 71 | 221 | 2.0 | 4.0 | 0.00 | 0.00 | 0.00 | 84 | 1015.4 |
| 20260906083637 | 71 | 206 | 2.0 | 4.0 | 0.00 | 0.00 | 0.00 | 84 | 1015.5 |
| 20260906083253 | 71 | 230 | 2.0 | 4.0 | 0.00 | 0.00 | 0.00 | 84 | 1015.6 |
| 20260906083146 | 71 | 232 | 2.0 | 4.0 | 0.00 | 0.00 | 0.00 | 83 | 1015.6 |
| 20260906082636 | 71 | 219 | 3.0 | 4.0 | 0.00 | 0.00 | 0.00 | 83 | 1015.8 |
| 20260906082253 | 71 | 211 | 2.0 | 4.0 | 0.00 | 0.00 | 0.00 | 82 | 1015.7 |
| 20260906082146 | 72 | 205 | 2.0 | 4.0 | 0.00 | 0.00 | 0.00 | 82 | 1015.7 |
| 20260906081636 | 72 | 212 | 2.0 | 4.0 | 0.00 | 0.00 | 0.00 | 82 | 1015.8 |
| 20260906081253 | 72 | 207 | 0.0 | 4.0 | 0.00 | 0.00 | 0.00 | 81 | 1015.9 |
| 20260906081151 | 72 | 207 | 1.0 | 4.0 | 0.00 | 0.00 | 0.00 | 81 | 1016.0 |
| 20260906080641 | 72 | 134 | 2.0 | 4.0 | 0.00 | 0.00 | 0.00 | 80 | 1016.0 |
| 20260906080237 | 72 | 144 | 3.0 | 5.0 | 0.00 | 0.00 | 0.00 | 80 | 1016.0 |
| 20260906080150 | 72 | 139 | 2.0 | 5.0 | 0.00 | 0.00 | 0.00 | 80 | 1016.0 |
| 20260906075638 | 72 | 113 | 3.0 | 4.0 | 0.00 | 0.00 | 0.00 | 80 | 1015.9 |
| 20260906075254 | 73 | 147 | 2.0 | 4.0 | 0.00 | 0.00 | 0.00 | 80 | 1015.9 |
| 20260906075147 | 73 | 91 | 2.0 | 4.0 | 0.00 | 0.00 | 0.00 | 79 | 1015.9 |
| 20260906074638 | 73 | 87 | 2.0 | 4.0 | 0.00 | 0.00 | 0.00 | 79 | 1015.9 |
| 20260906074313 | 73 | 88 | 3.0 | 7.0 | 0.00 | 0.00 | 0.00 | 78 | 1015.9 |
| 20260906074145 | 73 | 99 | 2.0 | 7.0 | 0.00 | 0.00 | 0.00 | 78 | 1015.8 |
| 20260906073636 | 73 | 176 | 3.0 | 7.0 | 0.00 | 0.00 | 0.00 | 78 | 1015.8 |
| 20260906073252 | 73 | 146 | 4.0 | 7.0 | 0.00 | 0.00 | 0.00 | 78 | 1015.9 |
| 20260906073145 | 73 | 146 | 4.0 | 7.0 | 0.00 | 0.00 | 0.00 | 78 | 1015.9 |
| 20260906072655 | 73 | 162 | 4.0 | 7.0 | 0.00 | 0.00 | 0.00 | 78 | 1015.9 |
| 20260906072249 | 73 | 134 | 4.0 | 9.0 | 0.00 | 0.00 | 0.00 | 78 | 1015.9 |
| 20260906072146 | 73 | 185 | 4.0 | 9.0 | 0.00 | 0.00 | 0.00 | 78 | 1015.8 |
| 20260906071636 | 73 | 143 | 5.0 | 12.0 | 0.00 | 0.00 | 0.00 | 78 | 1015.7 |
| 20260906071252 | 73 | 142 | 9.0 | 12.0 | 0.00 | 0.00 | 0.00 | 77 | 1015.7 |
| 20260906071145 | 73 | 136 | 9.0 | 12.0 | 0.00 | 0.00 | 0.00 | 77 | 1015.8 |
| 20260906070635 | 73 | 142 | 8.0 | 12.0 | 0.00 | 0.00 | 0.00 | 77 | 1015.7 |
| 20260906070250 | 73 | 134 | 8.0 | 12.0 | 0.00 | 0.00 | 0.00 | 77 | 1015.8 |
| 20260906070143 | 73 | 216 | 7.0 | 12.0 | 0.00 | 0.00 | 0.00 | 77 | 1015.8 |
| 20260906065653 | 73 | 142 | 7.0 | 10.0 | 0.00 | 0.00 | 0.00 | 77 | 1015.6 |
| 20260906065250 | 73 | 153 | 5.0 | 9.0 | 0.00 | 0.00 | 0.00 | 77 | 1015.7 |
| 20260906065143 | 73 | 163 | 5.0 | 9.0 | 0.00 | 0.00 | 0.00 | 77 | 1015.6 |
| 20260906064653 | 73 | 150 | 6.0 | 10.0 | 0.00 | 0.00 | 0.00 | 76 | 1015.6 |
| 20260906064249 | 73 | 144 | 5.0 | 10.0 | 0.00 | 0.00 | 0.00 | 76 | 1015.4 |
| 20260906064142 | 73 | 161 | 6.0 | 10.0 | 0.00 | 0.00 | 0.00 | 76 | 1015.4 |
| 20260906063635 | 73 | 159 | 5.0 | 10.0 | 0.00 | 0.00 | 0.00 | 76 | 1015.4 |
| 20260906063248 | 73 | 140 | 6.0 | 10.0 | 0.00 | 0.00 | 0.00 | 76 | 1015.4 |
| 20260906063205 | 73 | 150 | 6.0 | 10.0 | 0.00 | 0.00 | 0.00 | 76 | 1015.4 |
| 20260906062653 | 73 | 157 | 7.0 | 10.0 | 0.00 | 0.00 | 0.00 | 76 | 1015.3 |
| 20260906062246 | 73 | 137 | 7.0 | 9.0 | 0.00 | 0.00 | 0.00 | 76 | 1015.4 |
| 20260906062143 | 73 | 142 | 6.0 | 9.0 | 0.00 | 0.00 | 0.00 | 76 | 1015.4 |
| 20260906061652 | 74 | 146 | 6.0 | 9.0 | 0.00 | 0.00 | 0.00 | 76 | 1015.3 |
| 20260906061249 | 73 | 178 | 6.0 | 8.0 | 0.00 | 0.00 | 0.00 | 75 | 1015.4 |
| 20260906061142 | 73 | 166 | 6.0 | 9.0 | 0.00 | 0.00 | 0.00 | 75 | 1015.4 |
| 20260906060650 | 73 | 163 | 7.0 | 9.0 | 0.00 | 0.00 | 0.00 | 76 | 1015.3 |
| 20260906060247 | 73 | 187 | 7.0 | 9.0 | 0.00 | 0.00 | 0.00 | 76 | 1015.3 |
| 20260906060159 | 73 | 159 | 7.0 | 10.0 | 0.00 | 0.00 | 0.00 | 76 | 1015.3 |
| 20260906055648 | 73 | 160 | 7.0 | 10.0 | 0.00 | 0.00 | 0.00 | 76 | 1015.3 |
| 20260906055244 | 73 | 154 | 8.0 | 10.0 | 0.00 | 0.00 | 0.00 | 76 | 1015.3 |
| 20260906055137 | 73 | 163 | 8.0 | 11.0 | 0.00 | 0.00 | 0.00 | 76 | 1015.2 |
| 20260906054708 | 73 | 163 | 9.0 | 12.0 | 0.00 | 0.00 | 0.00 | 76 | 1015.1 |
| 20260906054243 | 73 | 173 | 9.0 | 12.0 | 0.00 | 0.00 | 0.00 | 76 | 1015.1 |
| 20260906054136 | 73 | 153 | 9.0 | 12.0 | 0.00 | 0.00 | 0.00 | 76 | 1015.1 |
| 20260906053650 | 73 | 173 | 8.0 | 12.0 | 0.00 | 0.00 | 0.00 | 75 | 1015.1 |
| 20260906053242 | 73 | 178 | 7.0 | 11.0 | 0.00 | 0.00 | 0.00 | 75 | 1015.1 |
| 20260906053138 | 73 | 163 | 8.0 | 11.0 | 0.00 | 0.00 | 0.00 | 75 | 1015.1 |
| 20260906052708 | 73 | 159 | 7.0 | 12.0 | 0.00 | 0.00 | 0.00 | 75 | 1015.1 |
| 20260906052242 | 73 | 161 | 8.0 | 12.0 | 0.00 | 0.00 | 0.00 | 75 | 1015.0 |
| 20260906052135 | 73 | 146 | 8.0 | 11.0 | 0.00 | 0.00 | 0.00 | 75 | 1014.9 |
| 20260906051645 | 73 | 170 | 9.0 | 13.0 | 0.00 | 0.00 | 0.00 | 75 | 1014.9 |
| 20260906051241 | 74 | 163 | 8.0 | 13.0 | 0.00 | 0.00 | 0.00 | 75 | 1014.8 |
| 20260906051154 | 74 | 145 | 8.0 | 13.0 | 0.00 | 0.00 | 0.00 | 75 | 1014.8 |
| 20260906050644 | 74 | 131 | 8.0 | 11.0 | 0.00 | 0.00 | 0.00 | 75 | 1014.8 |
| 20260906050239 | 74 | 130 | 8.0 | 11.0 | 0.00 | 0.00 | 0.00 | 74 | 1014.8 |
| 20260906050150 | 74 | 167 | 8.0 | 12.0 | 0.00 | 0.00 | 0.00 | 74 | 1014.7 |
| 20260906045640 | 74 | 138 | 8.0 | 13.0 | 0.00 | 0.00 | 0.00 | 74 | 1014.8 |
| 20260906045238 | 74 | 152 | 8.0 | 13.0 | 0.00 | 0.00 | 0.00 | 74 | 1014.9 |
| 20260906045150 | 74 | 157 | 8.0 | 13.0 | 0.00 | 0.00 | 0.00 | 74 | 1014.9 |
| 20260906044643 | 74 | 163 | 7.0 | 13.0 | 0.00 | 0.00 | 0.00 | 73 | 1015.0 |
| 20260906044240 | 75 | 151 | 8.0 | 13.0 | 0.00 | 0.00 | 0.00 | 73 | 1014.9 |
| 20260906044150 | 75 | 139 | 9.0 | 13.0 | 0.00 | 0.00 | 0.00 | 73 | 1015.0 |
| 20260906043641 | 75 | 161 | 9.0 | 12.0 | 0.00 | 0.00 | 0.00 | 73 | 1015.0 |
| 20260906043316 | 75 | 164 | 9.0 | 12.0 | 0.00 | 0.00 | 0.00 | 73 | 1015.0 |
| 20260906043147 | 75 | 136 | 9.0 | 12.0 | 0.00 | 0.00 | 0.00 | 73 | 1015.1 |
| 20260906042636 | 75 | 172 | 8.0 | 14.0 | 0.00 | 0.00 | 0.00 | 73 | 1015.3 |
| 20260906042252 | 75 | 145 | 8.0 | 14.0 | 0.00 | 0.00 | 0.00 | 73 | 1015.3 |
| 20260906042144 | 75 | 150 | 8.0 | 14.0 | 0.00 | 0.00 | 0.00 | 72 | 1015.3 |
| 20260906041654 | 75 | 163 | 8.0 | 11.0 | 0.00 | 0.00 | 0.00 | 72 | 1015.3 |
| 20260906041251 | 76 | 147 | 8.0 | 11.0 | 0.00 | 0.00 | 0.00 | 72 | 1015.3 |
| 20260906041203 | 76 | 188 | 8.0 | 11.0 | 0.00 | 0.00 | 0.00 | 72 | 1015.4 |
| 20260906040648 | 76 | 164 | 7.0 | 11.0 | 0.00 | 0.00 | 0.00 | 71 | 1015.4 |
| 20260906040245 | 76 | 163 | 7.0 | 11.0 | 0.00 | 0.00 | 0.00 | 71 | 1015.4 |
| 20260906040138 | 76 | 159 | 7.0 | 14.0 | 0.00 | 0.00 | 0.00 | 71 | 1015.4 |
| 20260906035648 | 77 | 153 | 7.0 | 14.0 | 0.00 | 0.00 | 0.00 | 70 | 1015.4 |
| 20260906035306 | 77 | 138 | 8.0 | 12.0 | 0.00 | 0.00 | 0.00 | 70 | 1015.6 |
| 20260906035139 | 77 | 146 | 8.0 | 12.0 | 0.00 | 0.00 | 0.00 | 70 | 1015.6 |
| 20260906034649 | 77 | 153 | 8.0 | 14.0 | 0.00 | 0.00 | 0.00 | 70 | 1015.5 |
| 20260906034246 | 77 | 139 | 8.0 | 13.0 | 0.00 | 0.00 | 0.00 | 69 | 1015.5 |
| 20260906034139 | 77 | 160 | 8.0 | 13.0 | 0.00 | 0.00 | 0.00 | 69 | 1015.4 |
| 20260906033648 | 77 | 140 | 9.0 | 13.0 | 0.00 | 0.00 | 0.00 | 69 | 1015.4 |
| 20260906033245 | 77 | 147 | 9.0 | 15.0 | 0.00 | 0.00 | 0.00 | 68 | 1015.4 |
| 20260906033138 | 77 | 170 | 9.0 | 15.0 | 0.00 | 0.00 | 0.00 | 68 | 1015.4 |
| 20260906032647 | 78 | 161 | 9.0 | 15.0 | 0.00 | 0.00 | 0.00 | 68 | 1015.4 |
| 20260906032242 | 78 | 132 | 9.0 | 17.0 | 0.00 | 0.00 | 0.00 | 68 | 1015.3 |
| 20260906032155 | 78 | 163 | 9.0 | 17.0 | 0.00 | 0.00 | 0.00 | 68 | 1015.3 |
| 20260906031642 | 78 | 153 | 11.0 | 17.0 | 0.00 | 0.00 | 0.00 | 67 | 1015.3 |
| 20260906031239 | 78 | 151 | 11.0 | 17.0 | 0.00 | 0.00 | 0.00 | 67 | 1015.2 |
| 20260906031151 | 78 | 180 | 12.0 | 17.0 | 0.00 | 0.00 | 0.00 | 67 | 1015.1 |
| 20260906030641 | 78 | 173 | 12.0 | 17.0 | 0.00 | 0.00 | 0.00 | 67 | 1015.1 |
| 20260906030238 | 78 | 161 | 12.0 | 18.0 | 0.00 | 0.00 | 0.00 | 66 | 1015.1 |
| 20260906030211 | 79 | 130 | 12.0 | 18.0 | 0.00 | 0.00 | 0.00 | 66 | 1015.1 |
| 20260906025704 | 79 | 112 | 11.0 | 17.0 | 0.00 | 0.00 | 0.00 | 65 | 1015.0 |
| 20260906025237 | 79 | 151 | 13.0 | 19.0 | 0.00 | 0.00 | 0.00 | 65 | 1014.9 |
| 20260906025153 | 79 | 171 | 13.0 | 19.0 | 0.00 | 0.00 | 0.00 | 65 | 1014.8 |
| 20260906024643 | 79 | 120 | 13.0 | 20.0 | 0.00 | 0.00 | 0.00 | 64 | 1014.8 |
| 20260906024239 | 79 | 144 | 12.0 | 19.0 | 0.00 | 0.00 | 0.00 | 64 | 1014.8 |
| 20260906024152 | 79 | 101 | 12.0 | 19.0 | 0.00 | 0.00 | 0.00 | 64 | 1014.8 |
| 20260906023642 | 80 | 126 | 12.0 | 19.0 | 0.00 | 0.00 | 0.00 | 63 | 1014.9 |
| 20260906023238 | 80 | 169 | 11.0 | 18.0 | 0.00 | 0.00 | 0.00 | 63 | 1015.0 |
| 20260906023212 | 80 | 159 | 11.0 | 18.0 | 0.00 | 0.00 | 0.00 | 63 | 1014.9 |
| 20260906022640 | 80 | 121 | 10.0 | 16.0 | 0.00 | 0.00 | 0.00 | 63 | 1014.8 |
| 20260906022236 | 79 | 158 | 8.0 | 12.0 | 0.00 | 0.00 | 0.00 | 63 | 1014.9 |
| 20260906022147 | 80 | 148 | 7.0 | 12.0 | 0.00 | 0.00 | 0.00 | 63 | 1014.9 |
| 20260906021637 | 80 | 173 | 6.0 | 10.0 | 0.00 | 0.00 | 0.00 | 62 | 1014.8 |
| 20260906021254 | 80 | 100 | 7.0 | 10.0 | 0.00 | 0.00 | 0.00 | 61 | 1014.8 |
| 20260906021147 | 80 | 98 | 9.0 | 10.0 | 0.00 | 0.00 | 0.00 | 61 | 1014.8 |
| 20260906020641 | 80 | 155 | 7.0 | 8.0 | 0.00 | 0.00 | 0.00 | 60 | 1014.7 |
| 20260906020315 | 81 | 155 | 6.0 | 8.0 | 0.00 | 0.00 | 0.00 | 60 | 1014.6 |
| 20260906020150 | 81 | 146 | 6.0 | 8.0 | 0.00 | 0.00 | 0.00 | 60 | 1014.6 |
| 20260906015639 | 81 | 159 | 6.0 | 8.0 | 0.00 | 0.00 | 0.00 | 59 | 1014.7 |
| 20260906015237 | 82 | 172 | 5.0 | 8.0 | 0.00 | 0.00 | 0.00 | 58 | 1014.6 |
| 20260906015149 | 82 | 141 | 5.0 | 8.0 | 0.00 | 0.00 | 0.00 | 58 | 1014.6 |
| 20260906014639 | 82 | 153 | 5.0 | 9.0 | 0.00 | 0.00 | 0.00 | 58 | 1014.5 |
| 20260906014253 | 83 | 149 | 6.0 | 10.0 | 0.00 | 0.00 | 0.00 | 57 | 1014.3 |
| 20260906014146 | 83 | 153 | 6.0 | 10.0 | 0.00 | 0.00 | 0.00 | 57 | 1014.3 |
| 20260906013653 | 83 | 147 | 6.0 | 11.0 | 0.00 | 0.00 | 0.00 | 56 | 1014.3 |
| 20260906013250 | 83 | 140 | 7.0 | 12.0 | 0.00 | 0.00 | 0.00 | 55 | 1014.2 |
| 20260906013144 | 84 | 145 | 7.0 | 12.0 | 0.00 | 0.00 | 0.00 | 55 | 1014.1 |
| 20260906012654 | 84 | 156 | 7.0 | 12.0 | 0.00 | 0.00 | 0.00 | 54 | 1014.1 |
| 20260906012249 | 84 | 172 | 7.0 | 12.0 | 0.00 | 0.00 | 0.00 | 54 | 1014.0 |
| 20260906012146 | 84 | 200 | 7.0 | 12.0 | 0.00 | 0.00 | 0.00 | 54 | 1014.0 |
| 20260906011636 | 85 | 139 | 9.0 | 12.0 | 0.00 | 0.00 | 0.00 | 53 | 1014.0 |
| 20260906011252 | 85 | 183 | 8.0 | 12.0 | 0.00 | 0.00 | 0.00 | 53 | 1014.0 |
| 20260906011145 | 85 | 142 | 8.0 | 12.0 | 0.00 | 0.00 | 0.00 | 53 | 1013.9 |
| 20260906010653 | 86 | 157 | 10.0 | 17.0 | 0.00 | 0.00 | 0.00 | 53 | 1014.0 |
| 20260906010249 | 86 | 186 | 10.0 | 17.0 | 0.00 | 0.00 | 0.00 | 52 | 1013.9 |
| 20260906010203 | 86 | 167 | 10.0 | 17.0 | 0.00 | 0.00 | 0.00 | 52 | 1013.9 |
| 20260906005652 | 86 | 153 | 10.0 | 17.0 | 0.00 | 0.00 | 0.00 | 52 | 1013.8 |
| 20260906005247 | 87 | 184 | 11.0 | 18.0 | 0.00 | 0.00 | 0.00 | 51 | 1013.9 |
| 20260906005139 | 87 | 154 | 10.0 | 18.0 | 0.00 | 0.00 | 0.00 | 51 | 1013.8 |
| 20260906004648 | 87 | 148 | 11.0 | 17.0 | 0.00 | 0.00 | 0.00 | 51 | 1013.8 |
| 20260906004245 | 87 | 170 | 12.0 | 17.0 | 0.00 | 0.00 | 0.00 | 50 | 1013.7 |
| 20260906004137 | 88 | 155 | 12.0 | 17.0 | 0.00 | 0.00 | 0.00 | 50 | 1013.8 |
| 20260906003648 | 88 | 175 | 11.0 | 21.0 | 0.00 | 0.00 | 0.00 | 49 | 1013.7 |
| 20260906003305 | 88 | 146 | 11.0 | 21.0 | 0.00 | 0.00 | 0.00 | 48 | 1013.5 |
| 20260906003140 | 88 | 171 | 11.0 | 21.0 | 0.00 | 0.00 | 0.00 | 48 | 1013.5 |
| 20260906002649 | 89 | 153 | 12.0 | 21.0 | 0.00 | 0.00 | 0.00 | 47 | 1013.4 |
| 20260906002245 | 90 | 160 | 12.0 | 21.0 | 0.00 | 0.00 | 0.00 | 46 | 1013.5 |
| 20260906002138 | 90 | 188 | 13.0 | 21.0 | 0.00 | 0.00 | 0.00 | 45 | 1013.4 |
| 20260906001649 | 91 | 117 | 12.0 | 19.0 | 0.00 | 0.00 | 0.00 | 44 | 1013.4 |
| 20260906001244 | 91 | 166 | 12.0 | 21.0 | 0.00 | 0.00 | 0.00 | 45 | 1013.4 |
| 20260906001158 | 91 | 141 | 13.0 | 21.0 | 0.00 | 0.00 | 0.00 | 45 | 1013.4 |
| 20260906000707 | 91 | 174 | 13.0 | 21.0 | 0.00 | 0.00 | 0.00 | 46 | 1013.4 |
| 20260906000243 | 92 | 175 | 12.0 | 19.0 | 0.00 | 0.00 | 0.00 | 45 | 1013.4 |
| 20260906000154 | 92 | 125 | 11.0 | 19.0 | 0.00 | 0.00 | 0.00 | 45 | 1013.4 |
| 20260905235644 | 92 | 100 | 13.0 | 24.0 | 0.00 | 0.00 | 0.00 | 44 | 1013.4 |
| 20260905235300 | 92 | 167 | 14.0 | 24.0 | 0.00 | 0.00 | 0.00 | 45 | 1013.4 |
| 20260905235211 | 92 | 159 | 15.0 | 24.0 | 0.00 | 0.00 | 0.00 | 45 | 1013.4 |
| 20260905234641 | 92 | 146 | 11.0 | 22.0 | 0.00 | 0.00 | 0.00 | 45 | 1013.5 |
| 20260905234238 | 92 | 157 | 14.0 | 22.0 | 0.00 | 0.00 | 0.00 | 45 | 1013.4 |
| 20260905234151 | 92 | 183 | 14.0 | 22.0 | 0.00 | 0.00 | 0.00 | 45 | 1013.4 |
| 20260905233641 | 93 | 178 | 13.0 | 21.0 | 0.00 | 0.00 | 0.00 | 44 | 1013.5 |
| 20260905233236 | 93 | 168 | 11.0 | 21.0 | 0.00 | 0.00 | 0.00 | 45 | 1013.6 |
| 20260905233209 | 93 | 163 | 10.0 | 24.0 | 0.00 | 0.00 | 0.00 | 46 | 1013.6 |
| 20260905232641 | 93 | 162 | 11.0 | 24.0 | 0.00 | 0.00 | 0.00 | 45 | 1013.6 |
| 20260905232253 | 93 | 130 | 15.0 | 22.0 | 0.00 | 0.00 | 0.00 | 44 | 1013.6 |
| 20260905232151 | 93 | 146 | 14.0 | 21.0 | 0.00 | 0.00 | 0.00 | 44 | 1013.5 |
| 20260905231640 | 93 | 67 | 13.0 | 22.0 | 0.00 | 0.00 | 0.00 | 44 | 1013.6 |
| 20260905231236 | 93 | 162 | 13.0 | 21.0 | 0.00 | 0.00 | 0.00 | 45 | 1013.6 |
| 20260905231149 | 93 | 194 | 12.0 | 20.0 | 0.00 | 0.00 | 0.00 | 45 | 1013.5 |
| 20260905230639 | 94 | 178 | 12.0 | 22.0 | 0.00 | 0.00 | 0.00 | 45 | 1013.4 |
| 20260905230255 | 94 | 158 | 13.0 | 22.0 | 0.00 | 0.00 | 0.00 | 44 | 1013.4 |
| 20260905230148 | 94 | 155 | 15.0 | 22.0 | 0.00 | 0.00 | 0.00 | 43 | 1013.4 |
| 20260905225638 | 94 | 153 | 14.0 | 20.0 | 0.00 | 0.00 | 0.00 | 46 | 1013.3 |
| 20260905225315 | 94 | 160 | 10.0 | 19.0 | 0.00 | 0.00 | 0.00 | 44 | 1013.3 |
| 20260905225207 | 94 | 150 | 11.0 | 19.0 | 0.00 | 0.00 | 0.00 | 43 | 1013.3 |
| 20260905224636 | 94 | 140 | 14.0 | 22.0 | 0.00 | 0.00 | 0.00 | 43 | 1013.3 |
| 20260905224252 | 94 | 169 | 14.0 | 26.0 | 0.00 | 0.00 | 0.00 | 43 | 1013.3 |
| 20260905224143 | 94 | 167 | 14.0 | 26.0 | 0.00 | 0.00 | 0.00 | 42 | 1013.3 |
| 20260905223709 | 95 | 136 | 17.0 | 26.0 | 0.00 | 0.00 | 0.00 | 43 | 1013.3 |
| 20260905223304 | 95 | 148 | 15.0 | 21.0 | 0.00 | 0.00 | 0.00 | 44 | 1013.3 |
| 20260905223137 | 95 | 147 | 14.0 | 21.0 | 0.00 | 0.00 | 0.00 | 44 | 1013.3 |
| 20260905222646 | 95 | 149 | 14.0 | 21.0 | 0.00 | 0.00 | 0.00 | 42 | 1013.4 |
| 20260905222305 | 95 | 141 | 15.0 | 21.0 | 0.00 | 0.00 | 0.00 | 44 | 1013.4 |
| 20260905222138 | 95 | 142 | 14.0 | 21.0 | 0.00 | 0.00 | 0.00 | 44 | 1013.4 |
| 20260905221708 | 94 | 163 | 13.0 | 21.0 | 0.00 | 0.00 | 0.00 | 43 | 1013.3 |
| 20260905221240 | 95 | 173 | 14.0 | 21.0 | 0.00 | 0.00 | 0.00 | 41 | 1013.3 |
| 20260905221157 | 95 | 159 | 14.0 | 20.0 | 0.00 | 0.00 | 0.00 | 41 | 1013.4 |
| 20260905220646 | 95 | 86 | 11.0 | 20.0 | 0.00 | 0.00 | 0.00 | 42 | 1013.4 |
| 20260905220239 | 95 | 151 | 13.0 | 21.0 | 0.00 | 0.00 | 0.00 | 43 | 1013.5 |
| 20260905220152 | 95 | 147 | 12.0 | 21.0 | 0.00 | 0.00 | 0.00 | 41 | 1013.4 |
| 20260905215642 | 95 | 177 | 14.0 | 23.0 | 0.00 | 0.00 | 0.00 | 43 | 1013.5 |
| 20260905215259 | 94 | 146 | 14.0 | 23.0 | 0.00 | 0.00 | 0.00 | 44 | 1013.5 |
| 20260905215151 | 94 | 123 | 12.0 | 23.0 | 0.00 | 0.00 | 0.00 | 44 | 1013.4 |
| 20260905214700 | 94 | 154 | 15.0 | 24.0 | 0.00 | 0.00 | 0.00 | 45 | 1013.4 |
| 20260905214236 | 94 | 162 | 16.0 | 24.0 | 0.00 | 0.00 | 0.00 | 44 | 1013.6 |
| 20260905214147 | 94 | 139 | 16.0 | 24.0 | 0.00 | 0.00 | 0.00 | 45 | 1013.6 |
| 20260905213637 | 94 | 142 | 16.0 | 23.0 | 0.00 | 0.00 | 0.00 | 46 | 1013.6 |
| 20260905213254 | 94 | 147 | 14.0 | 24.0 | 0.00 | 0.00 | 0.00 | 46 | 1013.5 |
| 20260905213147 | 94 | 294 | 15.0 | 24.0 | 0.00 | 0.00 | 0.00 | 47 | 1013.6 |
| 20260905212655 | 94 | 81 | 14.0 | 24.0 | 0.00 | 0.00 | 0.00 | 47 | 1013.7 |
| 20260905212251 | 93 | 141 | 17.0 | 24.0 | 0.00 | 0.00 | 0.00 | 46 | 1013.8 |
| 20260905212204 | 93 | 117 | 15.0 | 23.0 | 0.00 | 0.00 | 0.00 | 46 | 1013.8 |
| 20260905211638 | 93 | 99 | 13.0 | 23.0 | 0.00 | 0.00 | 0.00 | 47 | 1013.8 |
| 20260905211251 | 93 | 202 | 13.0 | 26.0 | 0.00 | 0.00 | 0.00 | 47 | 1014.0 |
| 20260905211148 | 93 | 212 | 12.0 | 26.0 | 0.00 | 0.00 | 0.00 | 46 | 1014.0 |
| 20260905210638 | 93 | 281 | 10.0 | 26.0 | 0.00 | 0.00 | 0.00 | 47 | 1014.1 |
| 20260905210254 | 93 | 145 | 15.0 | 24.0 | 0.00 | 0.00 | 0.00 | 46 | 1014.2 |
| 20260905210146 | 93 | 251 | 13.0 | 23.0 | 0.00 | 0.00 | 0.00 | 48 | 1014.2 |
| 20260905205636 | 93 | 142 | 14.0 | 22.0 | 0.00 | 0.00 | 0.00 | 49 | 1014.3 |
| 20260905205253 | 93 | 295 | 11.0 | 24.0 | 0.00 | 0.00 | 0.00 | 50 | 1014.3 |
| 20260905205146 | 93 | 98 | 11.0 | 24.0 | 0.00 | 0.00 | 0.00 | 50 | 1014.4 |
| 20260905204636 | 93 | 210 | 15.0 | 24.0 | 0.00 | 0.00 | 0.00 | 49 | 1014.4 |
| 20260905204253 | 92 | 115 | 11.0 | 25.0 | 0.00 | 0.00 | 0.00 | 50 | 1014.5 |
| 20260905204147 | 92 | 157 | 14.0 | 25.0 | 0.00 | 0.00 | 0.00 | 49 | 1014.5 |
| 20260905203636 | 93 | 141 | 12.0 | 23.0 | 0.00 | 0.00 | 0.00 | 49 | 1014.7 |
| 20260905203251 | 92 | 144 | 13.0 | 22.0 | 0.00 | 0.00 | 0.00 | 49 | 1014.8 |
| 20260905203203 | 92 | 173 | 15.0 | 22.0 | 0.00 | 0.00 | 0.00 | 50 | 1015.0 |
| 20260905202650 | 92 | 156 | 11.0 | 20.0 | 0.00 | 0.00 | 0.00 | 50 | 1014.8 |
| 20260905202247 | 92 | 153 | 11.0 | 20.0 | 0.00 | 0.00 | 0.00 | 51 | 1014.9 |
| 20260905202144 | 92 | 141 | 13.0 | 22.0 | 0.00 | 0.00 | 0.00 | 51 | 1014.9 |
| 20260905201652 | 91 | 130 | 15.0 | 23.0 | 0.00 | 0.00 | 0.00 | 50 | 1015.0 |
| 20260905201249 | 92 | 157 | 13.0 | 23.0 | 0.00 | 0.00 | 0.00 | 49 | 1015.0 |
| 20260905201142 | 92 | 146 | 15.0 | 23.0 | 0.00 | 0.00 | 0.00 | 48 | 1015.1 |
| 20260905200652 | 92 | 127 | 11.0 | 18.0 | 0.00 | 0.00 | 0.00 | 49 | 1015.0 |
| 20260905200250 | 92 | 121 | 13.0 | 18.0 | 0.00 | 0.00 | 0.00 | 49 | 1015.0 |
| 20260905200142 | 92 | 154 | 11.0 | 17.0 | 0.00 | 0.00 | 0.00 | 49 | 1015.1 |
| 20260905195651 | 92 | 136 | 11.0 | 21.0 | 0.00 | 0.00 | 0.00 | 48 | 1015.1 |
| 20260905195247 | 93 | 130 | 14.0 | 21.0 | 0.00 | 0.00 | 0.00 | 47 | 1015.1 |
| 20260905195139 | 93 | 152 | 14.0 | 20.0 | 0.00 | 0.00 | 0.00 | 47 | 1015.1 |
| 20260905194708 | 93 | 135 | 11.0 | 18.0 | 0.00 | 0.00 | 0.00 | 48 | 1015.1 |
| 20260905194242 | 93 | 144 | 10.0 | 18.0 | 0.00 | 0.00 | 0.00 | 49 | 1015.1 |
| 20260905194155 | 93 | 157 | 10.0 | 18.0 | 0.00 | 0.00 | 0.00 | 49 | 1015.1 |
| 20260905193649 | 93 | 121 | 9.0 | 19.0 | 0.00 | 0.00 | 0.00 | 48 | 1015.1 |
| 20260905193242 | 93 | 141 | 13.0 | 19.0 | 0.00 | 0.00 | 0.00 | 48 | 1015.1 |
| 20260905193138 | 93 | 163 | 12.0 | 19.0 | 0.00 | 0.00 | 0.00 | 48 | 1015.1 |
| 20260905192707 | 93 | 157 | 12.0 | 22.0 | 0.00 | 0.00 | 0.00 | 47 | 1015.1 |
| 20260905192241 | 93 | 175 | 16.0 | 21.0 | 0.00 | 0.00 | 0.00 | 47 | 1015.2 |
| 20260905192155 | 93 | 151 | 15.0 | 19.0 | 0.00 | 0.00 | 0.00 | 47 | 1015.1 |
| 20260905191644 | 93 | 158 | 10.0 | 20.0 | 0.00 | 0.00 | 0.00 | 47 | 1015.2 |
| 20260905191241 | 93 | 146 | 12.0 | 20.0 | 0.00 | 0.00 | 0.00 | 47 | 1015.2 |
| 20260905191153 | 93 | 134 | 12.0 | 20.0 | 0.00 | 0.00 | 0.00 | 46 | 1015.1 |
| 20260905190644 | 93 | 144 | 11.0 | 20.0 | 0.00 | 0.00 | 0.00 | 46 | 1015.2 |
| 20260905190240 | 93 | 112 | 10.0 | 15.0 | 0.00 | 0.00 | 0.00 | 45 | 1015.2 |
| 20260905190151 | 93 | 142 | 11.0 | 15.0 | 0.00 | 0.00 | 0.00 | 47 | 1015.3 |
| 20260905185641 | 93 | 162 | 9.0 | 18.0 | 0.00 | 0.00 | 0.00 | 47 | 1015.3 |
| 20260905185238 | 93 | 155 | 11.0 | 21.0 | 0.00 | 0.00 | 0.00 | 46 | 1015.3 |
| 20260905185151 | 93 | 150 | 13.0 | 21.0 | 0.00 | 0.00 | 0.00 | 47 | 1015.3 |
| 20260905184643 | 92 | 150 | 12.0 | 21.0 | 0.00 | 0.00 | 0.00 | 48 | 1015.4 |
| 20260905184239 | 92 | 131 | 12.0 | 19.0 | 0.00 | 0.00 | 0.00 | 48 | 1015.4 |
| 20260905184151 | 92 | 152 | 9.0 | 16.0 | 0.00 | 0.00 | 0.00 | 48 | 1015.4 |
| 20260905183642 | 91 | 49 | 12.0 | 21.0 | 0.00 | 0.00 | 0.00 | 49 | 1015.4 |
| 20260905183238 | 91 | 113 | 13.0 | 21.0 | 0.00 | 0.00 | 0.00 | 49 | 1015.4 |
| 20260905183151 | 91 | 143 | 14.0 | 21.0 | 0.00 | 0.00 | 0.00 | 49 | 1015.4 |
| 20260905182641 | 91 | 257 | 15.0 | 19.0 | 0.00 | 0.00 | 0.00 | 48 | 1015.4 |
| 20260905182239 | 91 | 157 | 10.0 | 15.0 | 0.00 | 0.00 | 0.00 | 50 | 1015.5 |
| 20260905182151 | 91 | 165 | 9.0 | 16.0 | 0.00 | 0.00 | 0.00 | 48 | 1015.5 |
| 20260905181641 | 90 | 153 | 10.0 | 16.0 | 0.00 | 0.00 | 0.00 | 49 | 1015.5 |
| 20260905181317 | 90 | 171 | 12.0 | 14.0 | 0.00 | 0.00 | 0.00 | 49 | 1015.5 |
| 20260905181148 | 90 | 166 | 10.0 | 15.0 | 0.00 | 0.00 | 0.00 | 53 | 1015.4 |
| 20260905180657 | 90 | 123 | 8.0 | 16.0 | 0.00 | 0.00 | 0.00 | 51 | 1015.5 |
| 20260905180307 | 90 | 155 | 10.0 | 16.0 | 0.00 | 0.00 | 0.00 | 52 | 1015.6 |
| 20260905180159 | 90 | 142 | 11.0 | 16.0 | 0.00 | 0.00 | 0.00 | 51 | 1015.6 |
| 20260905175707 | 89 | 190 | 7.0 | 17.0 | 0.00 | 0.00 | 0.00 | 52 | 1015.6 |
| 20260905175242 | 89 | 128 | 12.0 | 17.0 | 0.00 | 0.00 | 0.00 | 53 | 1015.6 |
| 20260905175215 | 89 | 135 | 13.0 | 17.0 | 0.00 | 0.00 | 0.00 | 53 | 1015.7 |
| 20260905174643 | 89 | 198 | 12.0 | 17.0 | 0.00 | 0.00 | 0.00 | 54 | 1015.7 |
| 20260905174240 | 88 | 155 | 9.0 | 16.0 | 0.00 | 0.00 | 0.00 | 53 | 1015.6 |
| 20260905174150 | 88 | 130 | 10.0 | 16.0 | 0.00 | 0.00 | 0.00 | 53 | 1015.6 |
| 20260905173643 | 88 | 157 | 10.0 | 17.0 | 0.00 | 0.00 | 0.00 | 53 | 1015.6 |
| 20260905173317 | 88 | 163 | 11.0 | 17.0 | 0.00 | 0.00 | 0.00 | 53 | 1015.7 |
| 20260905173152 | 88 | 165 | 13.0 | 17.0 | 0.00 | 0.00 | 0.00 | 54 | 1015.8 |
| 20260905172642 | 88 | 140 | 12.0 | 16.0 | 0.00 | 0.00 | 0.00 | 53 | 1015.8 |
| 20260905172257 | 88 | 146 | 11.0 | 17.0 | 0.00 | 0.00 | 0.00 | 53 | 1015.8 |
| 20260905172148 | 88 | 155 | 10.0 | 16.0 | 0.00 | 0.00 | 0.00 | 54 | 1015.8 |